Time,TemperatureF,DewpointF,PressureIn,WindDirection,WindDirectionDegrees,WindSpeedMPH,WindSpeedGustMPH,Humidity,HourlyPrecipIn,Conditions,Clouds,dailyrainin,SoftwareType,DateUTC
2013-01-14 00:00:00,52.7,50.1,29.71,South,170,1.0,3.0,91,0.00,,,0.00,Wunderground v.1.15,2013-01-14 05:00:00,
2013-01-14 00:04:00,52.6,50.0,29.71,SW,236,1.0,6.0,91,0.00,,,0.00,Wunderground v.1.15,2013-01-14 05:04:00,
2013-01-14 00:10:00,52.5,49.9,29.72,SW,218,3.0,3.0,91,0.00,,,0.00,Wunderground v.1.15,2013-01-14 05:10:00,
2013-01-14 00:11:00,52.5,49.9,29.72,SW,218,1.0,3.0,91,0.00,,,0.00,Wunderground v.1.15,2013-01-14 05:11:00,
2013-01-14 00:16:00,52.5,49.9,29.72,SSE,153,2.0,3.0,91,0.00,,,0.00,Wunderground v.1.15,2013-01-14 05:16:00,
2013-01-14 00:21:00,52.5,49.9,29.72,SSW,211,1.0,2.0,91,0.00,,,0.00,Wunderground v.1.15,2013-01-14 05:21:00,
2013-01-14 00:26:00,52.5,49.9,29.72,SSE,166,2.0,4.0,91,0.00,,,0.00,Wunderground v.1.15,2013-01-14 05:26:00,
2013-01-14 00:32:00,52.5,49.7,29.72,South,174,1.0,3.0,90,0.00,,,0.00,Wunderground v.1.15,2013-01-14 05:32:00,
2013-01-14 00:38:00,52.4,49.6,29.71,South,186,2.0,5.0,90,0.00,,,0.00,Wunderground v.1.15,2013-01-14 05:38:00,
2013-01-14 00:43:00,52.4,49.6,29.71,SSW,208,2.0,4.0,90,0.00,,,0.00,Wunderground v.1.15,2013-01-14 05:43:00,
2013-01-14 00:49:00,52.3,49.5,29.72,SSW,211,3.0,4.0,90,0.00,,,0.00,Wunderground v.1.15,2013-01-14 05:49:00,
2013-01-14 00:54:00,52.4,49.6,29.71,SSE,167,4.0,4.0,90,0.00,,,0.00,Wunderground v.1.15,2013-01-14 05:54:00,
2013-01-14 01:00:00,52.4,49.6,29.71,SSE,159,2.0,3.0,90,0.00,,,0.00,Wunderground v.1.15,2013-01-14 06:00:00,
2013-01-14 01:05:00,52.4,49.6,29.72,South,188,4.0,4.0,90,0.00,,,0.00,Wunderground v.1.15,2013-01-14 06:05:00,
2013-01-14 01:11:00,52.5,49.7,29.72,SSW,196,3.0,5.0,90,0.00,,,0.00,Wunderground v.1.15,2013-01-14 06:11:00,
2013-01-14 01:16:00,52.5,49.7,29.72,South,169,4.0,5.0,90,0.00,,,0.00,Wunderground v.1.15,2013-01-14 06:16:00,
2013-01-14 01:21:00,52.6,49.8,29.73,South,176,4.0,4.0,90,0.00,,,0.00,Wunderground v.1.15,2013-01-14 06:21:00,
2013-01-14 01:27:00,52.6,49.8,29.72,SSE,165,2.0,4.0,90,0.00,,,0.00,Wunderground v.1.15,2013-01-14 06:27:00,
2013-01-14 01:32:00,52.6,49.8,29.71,South,169,5.0,5.0,90,0.00,,,0.00,Wunderground v.1.15,2013-01-14 06:32:00,
2013-01-14 01:38:00,52.6,49.8,29.72,South,180,2.0,5.0,90,0.00,,,0.00,Wunderground v.1.15,2013-01-14 06:38:00,
2013-01-14 01:43:00,52.8,49.9,29.72,SSE,155,1.0,3.0,90,0.00,,,0.00,Wunderground v.1.15,2013-01-14 06:43:00,
2013-01-14 01:49:00,52.9,50.0,29.72,WSW,242,1.0,3.0,90,0.00,,,0.00,Wunderground v.1.15,2013-01-14 06:49:00,
2013-01-14 01:54:00,53.0,50.1,29.73,SSW,205,2.0,5.0,90,0.00,,,0.00,Wunderground v.1.15,2013-01-14 06:54:00,
2013-01-14 01:59:00,53.1,49.9,29.73,SSE,165,4.0,5.0,89,0.00,,,0.00,Wunderground v.1.15,2013-01-14 06:59:00,
2013-01-14 02:04:00,53.3,50.1,29.74,South,181,5.0,5.0,89,0.00,,,0.00,Wunderground v.1.15,2013-01-14 07:04:00,
2013-01-14 02:09:00,53.5,50.3,29.75,WNW,302,11.0,11.0,89,0.00,,,0.00,Wunderground v.1.15,2013-01-14 07:09:00,
2013-01-14 02:14:00,51.4,46.7,29.80,WNW,284,7.0,25.0,84,0.00,,,0.01,Wunderground v.1.15,2013-01-14 07:14:00,
2013-01-14 02:19:00,48.4,45.3,29.82,West,279,5.0,25.0,89,0.16,,,0.02,Wunderground v.1.15,2013-01-14 07:19:00,
2013-01-14 02:24:00,47.3,45.4,29.82,NW,304,9.0,12.0,93,0.07,,,0.02,Wunderground v.1.15,2013-01-14 07:24:00,
2013-01-14 02:29:00,47.3,45.9,29.83,WNW,285,6.0,15.0,95,0.04,,,0.02,Wunderground v.1.15,2013-01-14 07:29:00,
2013-01-14 02:34:00,47.4,46.0,29.84,NW,311,9.0,13.0,95,0.00,,,0.02,Wunderground v.1.15,2013-01-14 07:34:00,
2013-01-14 02:39:00,47.6,46.2,29.85,West,266,10.0,20.0,95,0.00,,,0.02,Wunderground v.1.15,2013-01-14 07:39:00,
2013-01-14 02:44:00,47.4,45.8,29.86,WNW,297,8.0,16.0,94,0.00,,,0.02,Wunderground v.1.15,2013-01-14 07:44:00,
2013-01-14 02:49:00,47.1,44.9,29.86,West,280,13.0,18.0,92,0.00,,,0.02,Wunderground v.1.15,2013-01-14 07:49:00,
2013-01-14 02:54:00,46.7,44.5,29.87,North,5,4.0,13.0,92,0.00,,,0.02,Wunderground v.1.15,2013-01-14 07:54:00,
2013-01-14 02:59:00,45.9,43.4,29.89,NW,309,14.0,16.0,91,0.00,,,0.02,Wunderground v.1.15,2013-01-14 07:59:00,
2013-01-14 03:04:00,44.9,42.4,29.90,NNE,27,3.0,14.0,91,0.00,,,0.02,Wunderground v.1.15,2013-01-14 08:04:00,
2013-01-14 03:09:00,44.2,41.7,29.90,NW,315,7.0,15.0,91,0.00,,,0.02,Wunderground v.1.15,2013-01-14 08:09:00,
2013-01-14 03:14:00,43.6,41.4,29.91,West,269,8.0,18.0,92,0.00,,,0.02,Wunderground v.1.15,2013-01-14 08:14:00,
2013-01-14 03:19:00,43.1,40.9,29.91,WNW,298,5.0,18.0,92,0.00,,,0.02,Wunderground v.1.15,2013-01-14 08:19:00,
2013-01-14 03:24:00,42.7,40.3,29.92,WNW,300,4.0,15.0,91,0.00,,,0.02,Wunderground v.1.15,2013-01-14 08:24:00,
2013-01-14 03:29:00,42.6,40.2,29.92,NW,313,4.0,16.0,91,0.00,,,0.02,Wunderground v.1.15,2013-01-14 08:29:00,
2013-01-14 03:35:00,42.6,40.2,29.92,WSW,255,2.0,15.0,91,0.00,,,0.02,Wunderground v.1.15,2013-01-14 08:35:00,
2013-01-14 03:40:00,42.6,40.2,29.93,North,360,4.0,17.0,91,0.00,,,0.02,Wunderground v.1.15,2013-01-14 08:40:00,
2013-01-14 03:45:00,42.6,40.2,29.92,WNW,288,3.0,11.0,91,0.00,,,0.02,Wunderground v.1.15,2013-01-14 08:45:00,
2013-01-14 03:50:00,42.7,40.0,29.92,WNW,296,8.0,22.0,90,0.00,,,0.02,Wunderground v.1.15,2013-01-14 08:50:00,
2013-01-14 03:55:00,42.7,40.0,29.92,WNW,282,4.0,11.0,90,0.00,,,0.02,Wunderground v.1.15,2013-01-14 08:55:00,
2013-01-14 04:00:00,42.8,40.1,29.92,NW,313,6.0,11.0,90,0.00,,,0.02,Wunderground v.1.15,2013-01-14 09:00:00,
2013-01-14 04:05:00,42.8,40.1,29.92,West,273,3.0,7.0,90,0.00,,,0.02,Wunderground v.1.15,2013-01-14 09:05:00,
2013-01-14 04:10:00,42.8,40.1,29.93,WNW,296,3.0,7.0,90,0.00,,,0.02,Wunderground v.1.15,2013-01-14 09:10:00,
2013-01-14 04:15:00,42.9,40.2,29.93,WNW,288,4.0,8.0,90,0.00,,,0.02,Wunderground v.1.15,2013-01-14 09:15:00,
2013-01-14 04:20:00,43.0,40.3,29.93,WNW,302,0.0,4.0,90,0.00,,,0.02,Wunderground v.1.15,2013-01-14 09:20:00,
2013-01-14 04:25:00,43.0,40.3,29.93,West,273,7.0,7.0,90,0.00,,,0.02,Wunderground v.1.15,2013-01-14 09:25:00,
2013-01-14 04:30:00,43.1,40.1,29.94,West,268,4.0,7.0,89,0.00,,,0.02,Wunderground v.1.15,2013-01-14 09:30:00,
2013-01-14 04:35:00,43.3,40.3,29.95,WNW,286,4.0,11.0,89,0.00,,,0.02,Wunderground v.1.15,2013-01-14 09:35:00,
2013-01-14 04:40:00,43.3,40.0,29.95,WNW,287,4.0,5.0,88,0.00,,,0.02,Wunderground v.1.15,2013-01-14 09:40:00,
2013-01-14 04:45:00,43.3,40.0,29.95,WNW,292,8.0,9.0,88,0.00,,,0.02,Wunderground v.1.15,2013-01-14 09:45:00,
2013-01-14 04:50:00,43.3,39.7,29.96,NW,319,7.0,7.0,87,0.00,,,0.02,Wunderground v.1.15,2013-01-14 09:50:00,
2013-01-14 04:55:00,43.3,39.7,29.96,West,259,7.0,12.0,87,0.00,,,0.02,Wunderground v.1.15,2013-01-14 09:55:00,
2013-01-14 05:00:00,43.3,39.7,29.96,WNW,290,3.0,6.0,87,0.00,,,0.02,Wunderground v.1.15,2013-01-14 10:00:00,
2013-01-14 05:05:00,43.2,39.6,29.96,West,273,4.0,14.0,87,0.00,,,0.02,Wunderground v.1.15,2013-01-14 10:05:00,
2013-01-14 05:10:00,43.2,39.6,29.96,West,273,7.0,7.0,87,0.00,,,0.02,Wunderground v.1.15,2013-01-14 10:10:00,
2013-01-14 05:15:00,43.1,39.2,29.97,NW,319,6.0,11.0,86,0.00,,,0.02,Wunderground v.1.15,2013-01-14 10:15:00,
2013-01-14 05:20:00,43.1,38.9,29.96,SW,228,7.0,7.0,85,0.00,,,0.02,Wunderground v.1.15,2013-01-14 10:20:00,
2013-01-14 05:25:00,42.9,38.7,29.96,West,273,7.0,11.0,85,0.00,,,0.02,Wunderground v.1.15,2013-01-14 10:25:00,
2013-01-14 05:30:00,42.9,38.7,29.97,West,261,15.0,15.0,85,0.00,,,0.02,Wunderground v.1.15,2013-01-14 10:30:00,
2013-01-14 05:35:00,42.9,38.7,29.97,SW,230,5.0,15.0,85,0.00,,,0.02,Wunderground v.1.15,2013-01-14 10:35:00,
2013-01-14 05:40:00,42.8,38.9,29.98,West,269,7.0,9.0,86,0.00,,,0.02,Wunderground v.1.15,2013-01-14 10:40:00,
2013-01-14 05:45:00,42.7,38.8,29.98,West,261,6.0,10.0,86,0.00,,,0.02,Wunderground v.1.15,2013-01-14 10:45:00,
2013-01-14 05:50:00,42.7,38.8,29.99,West,266,9.0,9.0,86,0.00,,,0.02,Wunderground v.1.15,2013-01-14 10:50:00,
2013-01-14 05:55:00,42.9,38.7,30.00,West,264,3.0,12.0,85,0.00,,,0.02,Wunderground v.1.15,2013-01-14 10:55:00,
2013-01-14 06:00:00,42.9,38.4,30.00,WNW,284,9.0,9.0,84,0.00,,,0.02,Wunderground v.1.15,2013-01-14 11:00:00,
2013-01-14 06:05:00,42.9,38.4,30.01,WNW,294,4.0,16.0,84,0.00,,,0.02,Wunderground v.1.15,2013-01-14 11:05:00,
2013-01-14 06:10:00,42.9,38.4,30.01,West,274,7.0,10.0,84,0.00,,,0.02,Wunderground v.1.15,2013-01-14 11:10:00,
2013-01-14 06:15:00,42.8,38.0,30.02,West,281,4.0,11.0,83,0.00,,,0.02,Wunderground v.1.15,2013-01-14 11:15:00,
2013-01-14 06:20:00,42.6,37.5,30.02,NNW,336,8.0,9.0,82,0.00,,,0.02,Wunderground v.1.15,2013-01-14 11:20:00,
2013-01-14 06:25:00,42.3,36.9,30.03,WNW,299,9.0,15.0,81,0.00,,,0.02,Wunderground v.1.15,2013-01-14 11:25:00,
2013-01-14 06:30:00,42.1,36.7,30.04,NW,325,8.0,11.0,81,0.00,,,0.02,Wunderground v.1.15,2013-01-14 11:30:00,
2013-01-14 06:35:00,41.9,36.8,30.04,West,280,6.0,15.0,82,0.00,,,0.02,Wunderground v.1.15,2013-01-14 11:35:00,
2013-01-14 06:40:00,41.7,36.9,30.05,WNW,297,6.0,11.0,83,0.00,,,0.02,Wunderground v.1.15,2013-01-14 11:40:00,
2013-01-14 06:45:00,41.6,36.8,30.05,West,266,3.0,11.0,83,0.00,,,0.02,Wunderground v.1.15,2013-01-14 11:45:00,
2013-01-14 06:50:00,41.4,36.6,30.06,WNW,296,7.0,11.0,83,0.00,,,0.02,Wunderground v.1.15,2013-01-14 11:50:00,
2013-01-14 06:55:00,41.0,36.2,30.06,NW,313,6.0,15.0,83,0.00,,,0.02,Wunderground v.1.15,2013-01-14 11:55:00,
2013-01-14 07:00:00,40.7,36.2,30.07,West,272,7.0,9.0,84,0.00,,,0.02,Wunderground v.1.15,2013-01-14 12:00:00,
2013-01-14 07:05:00,40.6,36.1,30.07,West,269,8.0,17.0,84,0.00,,,0.02,Wunderground v.1.15,2013-01-14 12:05:00,
2013-01-14 07:10:00,40.5,36.0,30.08,WNW,296,4.0,7.0,84,0.00,,,0.02,Wunderground v.1.15,2013-01-14 12:10:00,
2013-01-14 07:15:00,40.4,35.9,30.08,WNW,296,6.0,9.0,84,0.00,,,0.02,Wunderground v.1.15,2013-01-14 12:15:00,
2013-01-14 07:20:00,40.3,35.5,30.08,WNW,284,8.0,9.0,83,0.00,,,0.02,Wunderground v.1.15,2013-01-14 12:20:00,
2013-01-14 07:25:00,40.2,35.4,30.08,WNW,284,7.0,11.0,83,0.00,,,0.02,Wunderground v.1.15,2013-01-14 12:25:00,
2013-01-14 07:30:00,40.2,34.8,30.09,West,269,4.0,6.0,81,0.00,,,0.02,Wunderground v.1.15,2013-01-14 12:30:00,
2013-01-14 07:35:00,40.1,34.1,30.09,West,259,9.0,15.0,79,0.00,,,0.02,Wunderground v.1.15,2013-01-14 12:35:00,
2013-01-14 07:40:00,40.1,34.1,30.10,WSW,252,10.0,15.0,79,0.00,,,0.02,Wunderground v.1.15,2013-01-14 12:40:00,
2013-01-14 07:46:00,40.1,34.1,30.11,West,263,6.0,15.0,79,0.00,,,0.02,Wunderground v.1.15,2013-01-14 12:46:00,
2013-01-14 07:51:00,40.0,33.7,30.11,West,281,3.0,7.0,78,0.00,,,0.02,Wunderground v.1.15,2013-01-14 12:51:00,
2013-01-14 07:56:00,39.9,33.6,30.11,WNW,290,6.0,13.0,78,0.00,,,0.02,Wunderground v.1.15,2013-01-14 12:56:00,
2013-01-14 08:01:00,39.9,33.6,30.12,NW,319,4.0,5.0,78,0.00,,,0.02,Wunderground v.1.15,2013-01-14 13:01:00,
2013-01-14 08:06:00,39.7,32.8,30.13,West,281,7.0,11.0,76,0.00,,,0.02,Wunderground v.1.15,2013-01-14 13:06:00,
2013-01-14 08:11:00,39.5,31.6,30.13,WNW,284,5.0,8.0,73,0.00,,,0.02,Wunderground v.1.15,2013-01-14 13:11:00,
2013-01-14 08:16:00,39.2,30.9,30.14,SSE,165,5.0,18.0,72,0.00,,,0.02,Wunderground v.1.15,2013-01-14 13:16:00,
2013-01-14 08:21:00,38.8,30.2,30.15,NNE,15,5.0,16.0,71,0.00,,,0.02,Wunderground v.1.15,2013-01-14 13:21:00,
2013-01-14 08:26:00,38.6,30.7,30.15,West,281,9.0,16.0,73,0.00,,,0.02,Wunderground v.1.15,2013-01-14 13:26:00,
2013-01-14 08:31:00,38.2,30.0,30.16,West,277,9.0,13.0,72,0.00,,,0.02,Wunderground v.1.15,2013-01-14 13:31:00,
2013-01-14 08:36:00,38.0,30.1,30.16,West,275,10.0,16.0,73,0.00,,,0.02,Wunderground v.1.15,2013-01-14 13:36:00,
2013-01-14 08:41:00,37.8,29.9,30.16,West,266,5.0,9.0,73,0.00,,,0.02,Wunderground v.1.15,2013-01-14 13:41:00,
2013-01-14 08:46:00,37.8,29.9,30.17,WNW,284,5.0,17.0,73,0.00,,,0.02,Wunderground v.1.15,2013-01-14 13:46:00,
2013-01-14 08:51:00,37.7,29.8,30.17,NW,310,12.0,12.0,73,0.00,,,0.02,Wunderground v.1.15,2013-01-14 13:51:00,
2013-01-14 08:56:00,37.6,29.4,30.18,West,277,7.0,17.0,72,0.00,,,0.02,Wunderground v.1.15,2013-01-14 13:56:00,
2013-01-14 09:01:00,37.4,29.5,30.18,WNW,303,7.0,8.0,73,0.00,,,0.02,Wunderground v.1.15,2013-01-14 14:01:00,
2013-01-14 09:06:00,37.2,29.7,30.18,WNW,300,5.0,14.0,74,0.00,,,0.02,Wunderground v.1.15,2013-01-14 14:06:00,
2013-01-14 09:11:00,37.1,29.6,30.18,NNW,329,12.0,17.0,74,0.00,,,0.02,Wunderground v.1.15,2013-01-14 14:11:00,
2013-01-14 09:16:00,36.9,29.4,30.19,West,281,10.0,17.0,74,0.00,,,0.02,Wunderground v.1.15,2013-01-14 14:16:00,
2013-01-14 09:21:00,36.7,28.5,30.20,WNW,289,10.0,17.0,72,0.00,,,0.02,Wunderground v.1.15,2013-01-14 14:21:00,
2013-01-14 09:26:00,36.5,28.7,30.20,NW,319,6.0,18.0,73,0.00,,,0.02,Wunderground v.1.15,2013-01-14 14:26:00,
2013-01-14 09:31:00,36.2,29.0,30.20,West,281,3.0,9.0,75,0.00,,,0.02,Wunderground v.1.15,2013-01-14 14:31:00,
2013-01-14 09:36:00,36.1,28.6,30.20,NNE,28,13.0,15.0,74,0.00,,,0.02,Wunderground v.1.15,2013-01-14 14:36:00,
2013-01-14 09:41:00,35.9,28.4,30.21,WNW,302,6.0,11.0,74,0.00,,,0.02,Wunderground v.1.15,2013-01-14 14:41:00,
2013-01-14 09:46:00,35.9,28.4,30.21,West,275,7.0,13.0,74,0.00,,,0.02,Wunderground v.1.15,2013-01-14 14:46:00,
2013-01-14 09:51:00,35.9,28.4,30.21,West,273,9.0,13.0,74,0.00,,,0.02,Wunderground v.1.15,2013-01-14 14:51:00,
2013-01-14 09:56:00,35.8,27.7,30.22,West,266,4.0,13.0,72,0.00,,,0.02,Wunderground v.1.15,2013-01-14 14:56:00,
2013-01-14 10:02:00,35.9,27.4,30.22,WNW,290,7.0,14.0,71,0.00,,,0.02,Wunderground v.1.15,2013-01-14 15:02:00,
2013-01-14 10:07:00,35.8,27.0,30.23,West,271,5.0,14.0,70,0.00,,,0.02,Wunderground v.1.15,2013-01-14 15:07:00,
2013-01-14 10:12:00,35.7,26.5,30.23,West,278,7.0,14.0,69,0.00,,,0.02,Wunderground v.1.15,2013-01-14 15:12:00,
2013-01-14 10:17:00,35.6,26.4,30.23,West,269,11.0,18.0,69,0.00,,,0.02,Wunderground v.1.15,2013-01-14 15:17:00,
2013-01-14 10:22:00,35.5,26.7,30.24,West,262,3.0,12.0,70,0.00,,,0.02,Wunderground v.1.15,2013-01-14 15:22:00,
2013-01-14 10:27:00,35.5,26.7,30.24,SSW,196,7.0,12.0,70,0.00,,,0.02,Wunderground v.1.15,2013-01-14 15:27:00,
2013-01-14 10:32:00,35.3,26.5,30.25,West,263,7.0,14.0,70,0.00,,,0.02,Wunderground v.1.15,2013-01-14 15:32:00,
2013-01-14 10:37:00,35.2,26.7,30.25,WSW,250,7.0,14.0,71,0.00,,,0.02,Wunderground v.1.15,2013-01-14 15:37:00,
2013-01-14 10:42:00,35.2,26.7,30.25,SW,236,6.0,13.0,71,0.00,,,0.02,Wunderground v.1.15,2013-01-14 15:42:00,
2013-01-14 10:47:00,35.0,26.2,30.25,West,261,7.0,17.0,70,0.00,,,0.02,Wunderground v.1.15,2013-01-14 15:47:00,
2013-01-14 10:52:00,34.8,26.0,30.26,SW,233,6.0,11.0,70,0.00,,,0.02,Wunderground v.1.15,2013-01-14 15:52:00,
2013-01-14 10:57:00,34.8,25.7,30.26,West,271,2.0,11.0,69,0.00,,,0.02,Wunderground v.1.15,2013-01-14 15:57:00,
2013-01-14 11:02:00,34.8,25.7,30.26,NW,310,5.0,10.0,69,0.00,,,0.02,Wunderground v.1.15,2013-01-14 16:02:00,
2013-01-14 11:07:00,34.9,25.8,30.26,WNW,284,9.0,19.0,69,0.00,,,0.02,Wunderground v.1.15,2013-01-14 16:07:00,
2013-01-14 11:12:00,34.9,25.8,30.26,WSW,249,8.0,11.0,69,0.00,,,0.02,Wunderground v.1.15,2013-01-14 16:12:00,
2013-01-14 11:17:00,34.9,25.8,30.26,NW,309,9.0,15.0,69,0.00,,,0.02,Wunderground v.1.15,2013-01-14 16:17:00,
2013-01-14 11:22:00,34.9,26.1,30.26,WSW,245,6.0,11.0,70,0.00,,,0.02,Wunderground v.1.15,2013-01-14 16:22:00,
2013-01-14 11:27:00,34.8,26.0,30.26,WNW,291,10.0,17.0,70,0.00,,,0.02,Wunderground v.1.15,2013-01-14 16:27:00,
2013-01-14 11:32:00,34.7,25.6,30.26,NNW,345,3.0,10.0,69,0.00,,,0.02,Wunderground v.1.15,2013-01-14 16:32:00,
2013-01-14 11:37:00,34.7,25.9,30.27,West,263,7.0,13.0,70,0.00,,,0.02,Wunderground v.1.15,2013-01-14 16:37:00,
2013-01-14 11:42:00,34.8,26.0,30.26,WSW,245,5.0,8.0,70,0.00,,,0.02,Wunderground v.1.15,2013-01-14 16:42:00,
2013-01-14 11:47:00,34.9,26.1,30.26,West,277,8.0,8.0,70,0.00,,,0.02,Wunderground v.1.15,2013-01-14 16:47:00,
2013-01-14 11:52:00,34.9,26.1,30.26,NW,309,7.0,11.0,70,0.00,,,0.02,Wunderground v.1.15,2013-01-14 16:52:00,
2013-01-14 11:57:00,34.9,26.4,30.26,West,274,4.0,11.0,71,0.00,,,0.02,Wunderground v.1.15,2013-01-14 16:57:00,
2013-01-14 12:02:00,34.8,26.4,30.26,WNW,300,9.0,10.0,71,0.00,,,0.02,Wunderground v.1.15,2013-01-14 17:02:00,
2013-01-14 12:07:00,34.6,26.5,30.26,West,271,2.0,10.0,72,0.00,,,0.02,Wunderground v.1.15,2013-01-14 17:07:00,
2013-01-14 12:12:00,34.8,26.7,30.26,NW,304,2.0,9.0,72,0.00,,,0.02,Wunderground v.1.15,2013-01-14 17:12:00,
2013-01-14 12:17:00,34.6,26.2,30.26,WSW,253,3.0,12.0,71,0.00,,,0.02,Wunderground v.1.15,2013-01-14 17:17:00,
2013-01-14 12:22:00,34.5,25.7,30.26,West,275,6.0,11.0,70,0.00,,,0.02,Wunderground v.1.15,2013-01-14 17:22:00,
2013-01-14 12:27:00,34.5,25.4,30.26,West,260,6.0,11.0,69,0.00,,,0.02,Wunderground v.1.15,2013-01-14 17:27:00,
2013-01-14 12:32:00,34.5,25.4,30.26,West,275,3.0,11.0,69,0.00,,,0.02,Wunderground v.1.15,2013-01-14 17:32:00,
2013-01-14 12:37:00,34.6,25.1,30.26,WNW,288,6.0,11.0,68,0.00,,,0.02,Wunderground v.1.15,2013-01-14 17:37:00,
2013-01-14 12:42:00,34.7,25.6,30.26,WNW,288,2.0,8.0,69,0.00,,,0.02,Wunderground v.1.15,2013-01-14 17:42:00,
2013-01-14 12:47:00,34.8,24.2,30.25,SW,215,6.0,11.0,65,0.00,,,0.02,Wunderground v.1.15,2013-01-14 17:47:00,
2013-01-14 12:52:00,35.0,25.1,30.25,NW,319,6.0,6.0,67,0.00,,,0.02,Wunderground v.1.15,2013-01-14 17:52:00,
2013-01-14 12:57:00,35.0,25.1,30.25,WSW,252,1.0,10.0,67,0.00,,,0.02,Wunderground v.1.15,2013-01-14 17:57:00,
2013-01-14 13:02:00,34.8,24.6,30.25,WNW,288,8.0,9.0,66,0.00,,,0.02,Wunderground v.1.15,2013-01-14 18:02:00,
2013-01-14 13:07:00,34.8,25.0,30.25,West,281,6.0,11.0,67,0.00,,,0.02,Wunderground v.1.15,2013-01-14 18:07:00,
2013-01-14 13:12:00,34.7,24.9,30.25,West,273,2.0,8.0,67,0.00,,,0.02,Wunderground v.1.15,2013-01-14 18:12:00,
2013-01-14 13:17:00,34.7,24.9,30.26,NW,313,5.0,10.0,67,0.00,,,0.02,Wunderground v.1.15,2013-01-14 18:17:00,
2013-01-14 13:23:00,34.7,24.9,30.26,WNW,284,5.0,11.0,67,0.00,,,0.02,Wunderground v.1.15,2013-01-14 18:23:00,
2013-01-14 13:28:00,34.8,25.3,30.26,West,264,4.0,11.0,68,0.00,,,0.02,Wunderground v.1.15,2013-01-14 18:28:00,
2013-01-14 13:33:00,34.8,25.7,30.26,NW,309,1.0,4.0,69,0.00,,,0.02,Wunderground v.1.15,2013-01-14 18:33:00,
2013-01-14 13:38:00,34.8,25.7,30.26,SW,236,5.0,10.0,69,0.00,,,0.02,Wunderground v.1.15,2013-01-14 18:38:00,
2013-01-14 13:43:00,34.8,25.7,30.27,WNW,284,5.0,8.0,69,0.00,,,0.02,Wunderground v.1.15,2013-01-14 18:43:00,
2013-01-14 13:48:00,34.7,25.6,30.27,WNW,294,6.0,9.0,69,0.00,,,0.02,Wunderground v.1.15,2013-01-14 18:48:00,
2013-01-14 13:53:00,34.7,25.6,30.27,WNW,300,3.0,5.0,69,0.00,,,0.02,Wunderground v.1.15,2013-01-14 18:53:00,
2013-01-14 13:58:00,34.7,25.6,30.27,West,263,5.0,9.0,69,0.00,,,0.02,Wunderground v.1.15,2013-01-14 18:58:00,
2013-01-14 14:03:00,34.6,25.5,30.28,West,262,7.0,10.0,69,0.00,,,0.02,Wunderground v.1.15,2013-01-14 19:03:00,
2013-01-14 14:08:00,34.4,24.9,30.27,WSW,238,6.0,10.0,68,0.00,,,0.02,Wunderground v.1.15,2013-01-14 19:08:00,
2013-01-14 14:13:00,34.3,25.2,30.28,SW,234,4.0,7.0,69,0.00,,,0.02,Wunderground v.1.15,2013-01-14 19:13:00,
2013-01-14 14:18:00,34.2,25.1,30.28,WSW,253,5.0,9.0,69,0.00,,,0.02,Wunderground v.1.15,2013-01-14 19:18:00,
2013-01-14 14:23:00,34.1,25.3,30.28,West,267,5.0,8.0,70,0.00,,,0.02,Wunderground v.1.15,2013-01-14 19:23:00,
2013-01-14 14:28:00,34.2,25.8,30.28,West,266,4.0,8.0,71,0.00,,,0.02,Wunderground v.1.15,2013-01-14 19:28:00,
2013-01-14 14:33:00,34.2,25.1,30.28,West,271,4.0,8.0,69,0.00,,,0.02,Wunderground v.1.15,2013-01-14 19:33:00,
2013-01-14 14:38:00,34.2,25.1,30.28,West,272,0.0,10.0,69,0.00,,,0.02,Wunderground v.1.15,2013-01-14 19:38:00,
2013-01-14 14:43:00,34.2,25.4,30.28,WNW,282,2.0,6.0,70,0.00,,,0.02,Wunderground v.1.15,2013-01-14 19:43:00,
2013-01-14 14:48:00,34.1,25.0,30.28,NW,304,6.0,9.0,69,0.00,,,0.02,Wunderground v.1.15,2013-01-14 19:48:00,
2013-01-14 14:53:00,34.0,24.9,30.28,West,274,7.0,12.0,69,0.00,,,0.02,Wunderground v.1.15,2013-01-14 19:53:00,
2013-01-14 14:58:00,33.8,25.0,30.28,WNW,282,8.0,12.0,70,0.00,,,0.02,Wunderground v.1.15,2013-01-14 19:58:00,
2013-01-14 15:03:00,33.7,24.6,30.28,NNW,344,2.0,5.0,69,0.00,,,0.02,Wunderground v.1.15,2013-01-14 20:03:00,
2013-01-14 15:08:00,33.7,25.0,30.28,WNW,284,3.0,7.0,70,0.00,,,0.02,Wunderground v.1.15,2013-01-14 20:08:00,
2013-01-14 15:13:00,33.7,25.0,30.28,WNW,300,5.0,8.0,70,0.00,,,0.02,Wunderground v.1.15,2013-01-14 20:13:00,
2013-01-14 15:18:00,33.5,24.8,30.28,WNW,283,2.0,12.0,70,0.00,,,0.02,Wunderground v.1.15,2013-01-14 20:18:00,
2013-01-14 15:23:00,33.5,25.1,30.28,NW,313,4.0,5.0,71,0.00,,,0.02,Wunderground v.1.15,2013-01-14 20:23:00,
2013-01-14 15:29:00,33.4,25.3,30.28,NW,325,7.0,7.0,72,0.00,,,0.02,Wunderground v.1.15,2013-01-14 20:29:00,
2013-01-14 15:34:00,33.3,25.2,30.29,WNW,287,2.0,5.0,72,0.00,,,0.02,Wunderground v.1.15,2013-01-14 20:34:00,
2013-01-14 15:39:00,33.3,25.6,30.29,WNW,295,2.0,7.0,73,0.00,,,0.02,Wunderground v.1.15,2013-01-14 20:39:00,
2013-01-14 15:44:00,33.2,25.5,30.28,WNW,283,4.0,7.0,73,0.00,,,0.02,Wunderground v.1.15,2013-01-14 20:44:00,
2013-01-14 15:49:00,33.1,24.7,30.28,NNW,333,7.0,9.0,71,0.00,,,0.02,Wunderground v.1.15,2013-01-14 20:49:00,
2013-01-14 15:53:00,33.0,24.3,30.28,NW,304,5.0,7.0,70,0.00,,,0.02,Wunderground v.1.15,2013-01-14 20:53:00,
2013-01-14 15:58:00,33.0,23.9,30.29,WNW,301,2.0,12.0,69,0.00,,,0.02,Wunderground v.1.15,2013-01-14 20:58:00,
2013-01-14 16:04:00,32.9,24.2,30.30,North,5,6.0,11.0,70,0.00,,,0.02,Wunderground v.1.15,2013-01-14 21:04:00,
2013-01-14 16:09:00,32.9,24.2,30.30,WNW,298,3.0,11.0,70,0.00,,,0.02,Wunderground v.1.15,2013-01-14 21:09:00,
2013-01-14 16:14:00,32.8,24.1,30.30,NW,317,5.0,9.0,70,0.00,,,0.02,Wunderground v.1.15,2013-01-14 21:14:00,
2013-01-14 16:19:00,32.8,23.7,30.30,NW,319,10.0,10.0,69,0.00,,,0.02,Wunderground v.1.15,2013-01-14 21:19:00,
2013-01-14 16:24:00,32.7,23.3,30.31,NW,304,8.0,9.0,68,0.00,,,0.02,Wunderground v.1.15,2013-01-14 21:24:00,
2013-01-14 16:29:00,32.6,23.2,30.32,WNW,297,5.0,13.0,68,0.00,,,0.02,Wunderground v.1.15,2013-01-14 21:29:00,
2013-01-14 16:34:00,32.6,23.2,30.31,WNW,282,5.0,11.0,68,0.00,,,0.02,Wunderground v.1.15,2013-01-14 21:34:00,
2013-01-14 16:39:00,32.5,23.1,30.31,WNW,295,2.0,11.0,68,0.00,,,0.02,Wunderground v.1.15,2013-01-14 21:39:00,
2013-01-14 16:44:00,32.5,22.8,30.31,West,273,4.0,10.0,67,0.00,,,0.02,Wunderground v.1.15,2013-01-14 21:44:00,
2013-01-14 16:49:00,32.5,22.8,30.31,WNW,299,7.0,10.0,67,0.00,,,0.02,Wunderground v.1.15,2013-01-14 21:49:00,
2013-01-14 16:54:00,32.4,22.7,30.32,NW,312,4.0,8.0,67,0.00,,,0.02,Wunderground v.1.15,2013-01-14 21:54:00,
2013-01-14 16:59:00,32.4,22.7,30.32,West,275,5.0,11.0,67,0.00,,,0.02,Wunderground v.1.15,2013-01-14 21:59:00,
2013-01-14 17:04:00,32.4,23.0,30.32,WNW,288,4.0,6.0,68,0.00,,,0.02,Wunderground v.1.15,2013-01-14 22:04:00,
2013-01-14 17:09:00,32.4,23.0,30.32,WNW,286,3.0,8.0,68,0.00,,,0.02,Wunderground v.1.15,2013-01-14 22:09:00,
2013-01-14 17:14:00,32.3,22.9,30.32,WNW,282,6.0,7.0,68,0.00,,,0.02,Wunderground v.1.15,2013-01-14 22:14:00,
2013-01-14 17:19:00,32.3,23.3,30.32,NNW,338,2.0,7.0,69,0.00,,,0.02,Wunderground v.1.15,2013-01-14 22:19:00,
2013-01-14 17:24:00,32.2,23.2,30.32,West,271,3.0,5.0,69,0.00,,,0.02,Wunderground v.1.15,2013-01-14 22:24:00,
2013-01-14 17:29:00,32.2,23.5,30.33,WNW,298,5.0,5.0,70,0.00,,,0.02,Wunderground v.1.15,2013-01-14 22:29:00,
2013-01-14 17:34:00,32.2,23.2,30.33,WNW,291,1.0,9.0,69,0.00,,,0.02,Wunderground v.1.15,2013-01-14 22:34:00,
2013-01-14 17:39:00,32.2,23.2,30.34,WSW,239,0.0,9.0,69,0.00,,,0.02,Wunderground v.1.15,2013-01-14 22:39:00,
2013-01-14 17:44:00,32.2,23.2,30.34,WSW,256,3.0,7.0,69,0.00,,,0.02,Wunderground v.1.15,2013-01-14 22:44:00,
2013-01-14 17:49:00,32.2,23.2,30.35,West,261,3.0,7.0,69,0.00,,,0.02,Wunderground v.1.15,2013-01-14 22:49:00,
2013-01-14 17:54:00,32.3,23.3,30.35,WNW,283,3.0,7.0,69,0.00,,,0.02,Wunderground v.1.15,2013-01-14 22:54:00,
2013-01-14 18:00:00,32.3,23.3,30.35,NW,307,3.0,7.0,69,0.00,,,0.02,Wunderground v.1.15,2013-01-14 23:00:00,
2013-01-14 18:05:00,32.3,23.3,30.34,WNW,291,2.0,9.0,69,0.00,,,0.02,Wunderground v.1.15,2013-01-14 23:05:00,
2013-01-14 18:10:00,32.2,23.2,30.35,WNW,288,4.0,9.0,69,0.00,,,0.02,Wunderground v.1.15,2013-01-14 23:10:00,
2013-01-14 18:15:00,32.2,23.2,30.33,West,280,5.0,7.0,69,0.00,,,0.02,Wunderground v.1.15,2013-01-14 23:15:00,
2013-01-14 18:20:00,32.1,23.1,30.33,WSW,252,5.0,7.0,69,0.00,,,0.02,Wunderground v.1.15,2013-01-14 23:20:00,
2013-01-14 18:25:00,32.1,23.1,30.32,WNW,288,0.0,9.0,69,0.00,,,0.02,Wunderground v.1.15,2013-01-14 23:25:00,
2013-01-14 18:30:00,32.1,23.1,30.32,West,267,6.0,9.0,69,0.00,,,0.02,Wunderground v.1.15,2013-01-14 23:30:00,
2013-01-14 18:35:00,32.1,23.4,30.34,WNW,289,4.0,7.0,70,0.00,,,0.02,Wunderground v.1.15,2013-01-14 23:35:00,
2013-01-14 18:40:00,32.1,23.4,30.35,WSW,238,2.0,7.0,70,0.00,,,0.02,Wunderground v.1.15,2013-01-14 23:40:00,
2013-01-14 18:45:00,32.1,23.4,30.35,WNW,289,4.0,8.0,70,0.00,,,0.02,Wunderground v.1.15,2013-01-14 23:45:00,
2013-01-14 18:50:00,32.1,23.8,30.34,WNW,290,2.0,8.0,71,0.00,,,0.02,Wunderground v.1.15,2013-01-14 23:50:00,
2013-01-14 18:55:00,32.0,23.7,30.34,West,269,4.0,9.0,71,0.00,,,0.02,Wunderground v.1.15,2013-01-14 23:55:00,
2013-01-14 19:00:00,32.0,23.7,30.35,West,279,4.0,10.0,71,0.00,,,0.02,Wunderground v.1.15,2013-01-15 00:00:00,
2013-01-14 19:05:00,31.9,23.6,30.36,WNW,287,1.0,8.0,71,0.00,,,0.02,Wunderground v.1.15,2013-01-15 00:05:00,
2013-01-14 19:10:00,31.9,23.6,30.36,West,260,3.0,10.0,71,0.00,,,0.02,Wunderground v.1.15,2013-01-15 00:10:00,
2013-01-14 19:15:00,31.8,23.5,30.37,WNW,290,6.0,10.0,71,0.00,,,0.02,Wunderground v.1.15,2013-01-15 00:15:00,
2013-01-14 19:20:00,31.9,23.2,30.37,WSW,257,3.0,4.0,70,0.00,,,0.02,Wunderground v.1.15,2013-01-15 00:20:00,
2013-01-14 19:25:00,31.9,23.2,30.37,West,279,2.0,5.0,70,0.00,,,0.02,Wunderground v.1.15,2013-01-15 00:25:00,
2013-01-14 19:30:00,31.8,22.8,30.36,NW,307,4.0,4.0,69,0.00,,,0.02,Wunderground v.1.15,2013-01-15 00:30:00,
2013-01-14 19:35:00,31.8,22.8,30.36,West,261,3.0,6.0,69,0.00,,,0.02,Wunderground v.1.15,2013-01-15 00:35:00,
2013-01-14 19:40:00,31.7,22.0,30.35,NW,304,3.0,3.0,67,0.00,,,0.02,Wunderground v.1.15,2013-01-15 00:40:00,
2013-01-14 19:45:00,31.7,21.6,30.35,West,277,4.0,11.0,66,0.00,,,0.02,Wunderground v.1.15,2013-01-15 00:45:00,
2013-01-14 19:50:00,31.6,21.5,30.33,West,271,2.0,4.0,66,0.00,,,0.02,Wunderground v.1.15,2013-01-15 00:50:00,
2013-01-14 19:55:00,31.5,21.4,30.32,WNW,298,4.0,8.0,66,0.00,,,0.02,Wunderground v.1.15,2013-01-15 00:55:00,
2013-01-14 20:00:00,31.5,21.4,30.31,WNW,299,2.0,4.0,66,0.00,,,0.02,Wunderground v.1.15,2013-01-15 01:00:00,
2013-01-14 20:05:00,31.4,21.7,30.32,WNW,296,2.0,5.0,67,0.00,,,0.02,Wunderground v.1.15,2013-01-15 01:05:00,
2013-01-14 20:10:00,31.4,21.7,30.31,WNW,282,0.0,2.0,67,0.00,,,0.02,Wunderground v.1.15,2013-01-15 01:10:00,
2013-01-14 20:15:00,31.3,22.0,30.31,WNW,301,2.0,5.0,68,0.00,,,0.02,Wunderground v.1.15,2013-01-15 01:15:00,
2013-01-14 20:20:00,31.3,21.6,30.32,WSW,242,2.0,3.0,67,0.00,,,0.02,Wunderground v.1.15,2013-01-15 01:20:00,
2013-01-14 20:25:00,31.3,22.0,30.32,SW,236,1.0,6.0,68,0.00,,,0.02,Wunderground v.1.15,2013-01-15 01:25:00,
2013-01-14 20:30:00,31.4,21.7,30.33,WSW,246,4.0,4.0,67,0.00,,,0.02,Wunderground v.1.15,2013-01-15 01:30:00,
2013-01-14 20:35:00,31.4,22.1,30.34,SW,236,2.0,5.0,68,0.00,,,0.02,Wunderground v.1.15,2013-01-15 01:35:00,
2013-01-14 20:40:00,31.4,22.1,30.33,WSW,244,1.0,3.0,68,0.00,,,0.02,Wunderground v.1.15,2013-01-15 01:40:00,
2013-01-14 20:45:00,31.4,22.4,30.32,WSW,257,4.0,6.0,69,0.00,,,0.02,Wunderground v.1.15,2013-01-15 01:45:00,
2013-01-14 20:50:00,31.5,22.1,30.34,WSW,246,2.0,3.0,68,0.00,,,0.02,Wunderground v.1.15,2013-01-15 01:50:00,
2013-01-14 20:55:00,31.4,22.1,30.33,West,271,2.0,6.0,68,0.00,,,0.02,Wunderground v.1.15,2013-01-15 01:55:00,
2013-01-14 21:00:00,31.5,22.1,30.34,West,277,4.0,4.0,68,0.00,,,0.02,Wunderground v.1.15,2013-01-15 02:00:00,
2013-01-14 21:05:00,31.5,21.8,30.33,WSW,254,5.0,6.0,67,0.00,,,0.02,Wunderground v.1.15,2013-01-15 02:05:00,
2013-01-14 21:10:00,31.5,21.4,30.33,West,269,2.0,5.0,66,0.00,,,0.02,Wunderground v.1.15,2013-01-15 02:10:00,
2013-01-14 21:15:00,31.5,21.8,30.33,WSW,238,4.0,7.0,67,0.00,,,0.02,Wunderground v.1.15,2013-01-15 02:15:00,
2013-01-14 21:20:00,31.4,21.3,30.33,WSW,244,2.0,4.0,66,0.00,,,0.02,Wunderground v.1.15,2013-01-15 02:20:00,
2013-01-14 21:25:00,31.4,22.1,30.34,SW,219,3.0,4.0,68,0.00,,,0.02,Wunderground v.1.15,2013-01-15 02:25:00,
2013-01-14 21:30:00,31.4,22.1,30.35,SW,221,1.0,4.0,68,0.00,,,0.02,Wunderground v.1.15,2013-01-15 02:30:00,
2013-01-14 21:35:00,31.4,22.1,30.36,West,267,4.0,6.0,68,0.00,,,0.02,Wunderground v.1.15,2013-01-15 02:35:00,
2013-01-14 21:40:00,31.4,22.1,30.35,NNW,333,2.0,6.0,68,0.00,,,0.02,Wunderground v.1.15,2013-01-15 02:40:00,
2013-01-14 21:45:00,31.3,22.0,30.35,SW,225,7.0,7.0,68,0.00,,,0.02,Wunderground v.1.15,2013-01-15 02:45:00,
2013-01-14 21:50:00,31.3,22.3,30.34,West,265,2.0,4.0,69,0.00,,,0.02,Wunderground v.1.15,2013-01-15 02:50:00,
2013-01-14 21:55:00,31.3,22.3,30.35,WSW,240,3.0,7.0,69,0.00,,,0.02,Wunderground v.1.15,2013-01-15 02:55:00,
2013-01-14 22:00:00,31.2,21.9,30.35,West,280,4.0,4.0,68,0.00,,,0.02,Wunderground v.1.15,2013-01-15 03:00:00,
2013-01-14 22:05:00,31.2,21.9,30.34,WSW,247,4.0,5.0,68,0.00,,,0.02,Wunderground v.1.15,2013-01-15 03:05:00,
2013-01-14 22:10:00,31.2,22.2,30.35,WNW,284,2.0,4.0,69,0.00,,,0.02,Wunderground v.1.15,2013-01-15 03:10:00,
2013-01-14 22:15:00,31.2,22.2,30.34,WSW,244,3.0,6.0,69,0.00,,,0.02,Wunderground v.1.15,2013-01-15 03:15:00,
2013-01-14 22:21:00,31.2,22.2,30.35,WSW,249,3.0,5.0,69,0.00,,,0.02,Wunderground v.1.15,2013-01-15 03:21:00,
2013-01-14 22:26:00,31.2,22.2,30.34,WNW,290,3.0,5.0,69,0.00,,,0.02,Wunderground v.1.15,2013-01-15 03:26:00,
2013-01-14 22:31:00,31.2,22.2,30.35,WNW,288,2.0,5.0,69,0.00,,,0.02,Wunderground v.1.15,2013-01-15 03:31:00,
2013-01-14 22:36:00,31.1,22.1,30.35,West,279,2.0,5.0,69,0.00,,,0.02,Wunderground v.1.15,2013-01-15 03:36:00,
2013-01-14 22:41:00,31.1,21.8,30.35,WNW,286,3.0,5.0,68,0.00,,,0.02,Wunderground v.1.15,2013-01-15 03:41:00,
2013-01-14 22:46:00,31.1,21.8,30.35,WSW,248,2.0,5.0,68,0.00,,,0.02,Wunderground v.1.15,2013-01-15 03:46:00,
2013-01-14 22:51:00,31.1,21.8,30.34,WNW,293,3.0,5.0,68,0.00,,,0.02,Wunderground v.1.15,2013-01-15 03:51:00,
2013-01-14 22:56:00,31.0,21.7,30.33,WSW,256,0.0,5.0,68,0.00,,,0.02,Wunderground v.1.15,2013-01-15 03:56:00,
2013-01-14 23:01:00,31.0,21.7,30.34,WNW,285,2.0,2.0,68,0.00,,,0.02,Wunderground v.1.15,2013-01-15 04:01:00,
2013-01-14 23:06:00,31.0,22.0,30.35,WNW,285,1.0,2.0,69,0.00,,,0.02,Wunderground v.1.15,2013-01-15 04:06:00,
2013-01-14 23:11:00,31.0,22.0,30.34,SW,221,3.0,3.0,69,0.00,,,0.02,Wunderground v.1.15,2013-01-15 04:11:00,
2013-01-14 23:16:00,31.0,21.7,30.34,WNW,287,3.0,6.0,68,0.00,,,0.02,Wunderground v.1.15,2013-01-15 04:16:00,
2013-01-14 23:21:00,31.0,22.0,30.34,WSW,250,2.0,3.0,69,0.00,,,0.02,Wunderground v.1.15,2013-01-15 04:21:00,
2013-01-14 23:26:00,30.9,21.9,30.33,SW,236,0.0,4.0,69,0.00,,,0.02,Wunderground v.1.15,2013-01-15 04:26:00,
2013-01-14 23:31:00,30.9,21.9,30.33,West,269,2.0,3.0,69,0.00,,,0.02,Wunderground v.1.15,2013-01-15 04:31:00,
2013-01-14 23:36:00,30.8,21.8,30.33,WSW,258,3.0,5.0,69,0.00,,,0.02,Wunderground v.1.15,2013-01-15 04:36:00,
2013-01-14 23:41:00,30.8,21.8,30.32,West,271,5.0,5.0,69,0.00,,,0.02,Wunderground v.1.15,2013-01-15 04:41:00,
2013-01-14 23:46:00,30.7,21.7,30.32,West,277,2.0,5.0,69,0.00,,,0.02,Wunderground v.1.15,2013-01-15 04:46:00,
2013-01-14 23:51:00,30.6,21.6,30.33,WSW,244,3.0,6.0,69,0.00,,,0.02,Wunderground v.1.15,2013-01-15 04:51:00,
2013-01-14 23:56:00,30.5,21.5,30.33,West,275,1.0,6.0,69,0.00,,,0.02,Wunderground v.1.15,2013-01-15 04:56:00,